Location: Unspecified
(0.0000°N, 0.0000°E)
Time: 01:23:07
(UTC+00:00)

Altair - Pass Details

Date: 26 November 2019
Orbit: 1502 x 1682 km, 47.2° (Epoch: 10 December)

Event Time Altitude Azimuth Distance (km) Brightness Sun altitude
Rises 20:17:34 0° 202° (SSW) 4,879 10.7 -34.7°
Reaches altitude 10° 20:21:13 10° 192° (SSW) 3,867 10.0 -35.5°
Enters shadow 20:28:16 32° 148° (SSE) 2,493 8.4 -37.1°
